Regional Weather Roundup
Issued by NWS

Home | Current Version | Previous Version | Graphics & Text | Print | Product List | Glossary On
Versions: 1 2 3 4 5 6 7 8 9 10 11 12 13 14 15 16 17 18 19 20 21 22 23 24 25 26 27 28 29 30 31 32 33 34 35 36 37 38 39 40 41 42 43 44 45 46 47 48 49 50
000
ASUS45 KABQ 220810
RWRNM
WEATHER ROUNDUP FOR NEW MEXICO
NATIONAL WEATHER SERVICE ALBUQUERQUE NM
200 AM MDT FRI AUG 22 2014

NOTE: "FAIR" MEANS FEW OR NO CLOUDS BELOW 12,000 FEET AGL WITH NO
       SIGNIFICANT WEATHER OR OBSTRUCTIONS TO VISION.

      THIS PRODUCT IS RELEASED AS TWO VERSIONS.  ONE VERSION NEAR
      THE TOP OF THE HOUR CONTAINING PRELIMINARY DATA FROM ALBUQUERQUE
      AND OTHER STATIONS.  A FINAL VERSION WITH ADDITIONAL DATA IS
      ISSUED ABOUT 10 MINUTES AFTER THE HOUR.

NMZ501-503-504-510>518-220900-
NORTHWEST PLATEAU/NORTHCENTRAL MOUNTAINS

CITY           SKY/WX    TMP DP  RH WIND       PRES   REMARKS
FARMINGTON     LGT RAIN  63  52  67 W13G22    30.18R
LOS ALAMOS     MOCLDY    68  33  28 SW3       30.23F
SANTA FE       PTCLDY    65  37  35 SE3       30.17F
TAOS           MOCLDY    61  36  39 SE7       30.24S
ANGEL FIRE     FAIR      47  40  76 CALM      30.33F

$$
NMZ402-403-502-505>509-220900-
WESTCENTRAL MOUNTAINS/SOUTHWEST MOUNTAINS

CITY           SKY/WX    TMP DP  RH WIND       PRES   REMARKS
GALLUP         CLOUDY    57  54  89 SW5       30.26S
SILVER CITY    CLOUDY    68  50  52 NW9       30.18S

$$
NMZ407-409-411-412-220900-
SOUTHERN DESERTS

CITY           SKY/WX    TMP DP  RH WIND       PRES   REMARKS
LORDSBURG      FAIR      72  52  49 W9        30.11S
DEMING         CLOUDY    73  61  65 S12       30.10F
LAS CRUCES     CLOUDY    72  60  66 W13       30.12R
HOLLOMAN AFB   MOCLDY    79  55  42 SE9       30.05S
ALAMOGORDO     MOCLDY    77  54  44 S7        30.07S
T OR C         CLOUDY    75  51  43 S5        30.11R

$$
NMZ519>523-220900-
CENTRAL VALLEYS/CENTRAL HIGHLANDS

CITY           SKY/WX    TMP DP  RH WIND       PRES   REMARKS
ALBUQUERQUE    MOCLDY    71  47  42 S6        30.13S
DOUBLE EAGLE   PTCLDY    66  41  40 N3        30.17R
MORIARTY ARPT  FAIR      58  44  60 S3        30.19S
CLINES CORNERS PTCLDY    63  40  42 SW13      30.22F
BELEN          FAIR      69  49  49 W8        30.12S
SOCORRO        FAIR      73  49  43 CALM      30.09S

$$
NMZ524>526-539-540-220900-
SOUTHCENTRAL MOUNTAINS

CITY           SKY/WX    TMP DP  RH WIND       PRES   REMARKS
RUIDOSO        MOCLDY    66  50  55 SW10      30.25S

$$
NMZ527>531-220900-
NORTHEAST HIGHLANDS/NORTHEAST PLAINS

CITY           SKY/WX    TMP DP  RH WIND       PRES   REMARKS
LAS VEGAS      PTCLDY    57  41  55 S12       30.22F
RATON          PTCLDY    58  41  53 N7        30.15F
CLAYTON        CLEAR     69  52  54 W7        30.06F

$$
NMZ532>537-220900-
EASTCENTRAL PLAINS

CITY           SKY/WX    TMP DP  RH WIND       PRES   REMARKS
TUCUMCARI      CLEAR     79  55  43 S13       30.00F
CANNON AFB     PTCLDY    74  60  61 S9        30.07R
CLOVIS AIRPORT   N/A     73  57  56 S14       30.10R

$$
NMZ028-029-538-220900-
SOUTHEAST PLAINS

CITY           SKY/WX    TMP DP  RH WIND       PRES   REMARKS
ROSWELL        MOCLDY    78  59  51 SE10      30.02F
ARTESIA        PTCLDY    77  59  53 SE13      30.02S
CARLSBAD       PTCLDY    78  60  53 S10       30.00F
HOBBS          CLEAR     75  63  64 S16       30.06F


$$



USA.gov is the U.S. government's official web portal to all federal, state and local government web resources and services.